Regional Weather Roundup
Issued by NWS New Orleans/Baton Rouge, LA

Home | Current Version | Previous Version | Graphics & Text | Print | Product List | Glossary On
Versions: 1 2 3 4 5 6 7 8 9 10 11 12 13 14 15 16 17 18 19 20 21 22 23 24 25 26 27 28 29 30 31 32 33 34 35 36 37 38 39 40 41 42 43 44 45 46 47 48 49 50
795
ASUS44 KLIX 261110
RWRLIX
NEW ORLEANS REGIONAL WEATHER ROUNDUP
NATIONAL WEATHER SERVICE NEW ORLEANS LA
500 AM CST MON JAN 26 2015

NOTE: "FAIR" INDICATES FEW OR NO CLOUDS BELOW 12,000 FEET WITH NO
      SIGNIFICANT WEATHER AND/OR OBSTRUCTIONS TO VISIBILITY.
      SKY/WX - SKY CONDITION AND SIGNIFICANT WEATHER.
      TMP - AIR TEMPERATURE.     DP    - DEWPOINT TEMPERATURE.
      RH  - RELATIVE HUMIDITY.   PRES  - PRESSURE.
      HI  - HEAT INDEX.          WCI   - WIND CHILL INDEX.

*  THESE STATIONS ARE NOT NWS OR FAA STATIONS AND ARE NOT UNDER
   NWS QUALITY CONTROL.

LAZ038-040-048-061>063-065>067-069-261200-
SOUTHEAST LOUISIANA

CITY           SKY/WX    TMP DP  RH WIND       PRES   REMARKS
N.O. AUDUBON     N/A     50  37  60 MISG        N/A
N.O. INTL ARPT CLEAR     49  35  58 NW12      30.05R
N.O. LAKEFRONT CLEAR     53  38  56 NW17      30.06R
N.O. DOWNTOWN*   N/A     52  34  50 NW6       30.06R
SLIDELL        CLEAR     45  34  65 CALM      30.04R
BATON ROUGE    CLEAR     49  31  49 NW8       30.06R
BOOTHVILLE     CLEAR     50  39  66 NW9       30.05R
BELLE CHASSE   CLEAR     51  33  50 NW5       30.05R
BOGALUSA*        N/A     44  34  68 N7        30.05S
GALLIANO*      SUNNY     45  37  73 MISG      30.07R
NEW ROADS*       N/A     47  33  57 NW14      30.08S
GONZALES*        N/A     48  33  55 NW5       30.05S
HAMMOND*       CLEAR     48  32  53 NW8       30.07R
HOUMA*         CLEAR     48  34  59 NW6       30.06S HAZE
PORT FOURCHON* SUNNY     52  41  66 W8        30.10R

$$

MSZ070-080>082-261200-
SOUTHERN MISSISSIPPI

CITY           SKY/WX    TMP DP  RH WIND       PRES   REMARKS
MCCOMB         CLEAR     44  33  65 NW8       30.04R
GULFPORT       CLEAR     43  35  73 W6        30.02R
BILOXI         CLEAR     44  37  73 VRB2      30.02R
PASCAGOULA     CLEAR     47  34  60 NW6       29.99S

$$

COASTAL OBSERVATIONS
LAKE AND NEARSHORE STATIONS

STATION/POSITION TIME  TEMP    WIND        PRES    WAVE
                       AIR SEA DIR/SP/G            HT/PER
                 (UTC) (F)     (DEG/KT/KT) (MB)    (FT/S)
PASCAGOULA       1100   48     330/  7/ 11 1015.2
WAVELAND YACHT   1100   47     310/  7/ 10 1015.9
GRAND ISLE       1100   54 57  310/ 12/ 15 1018.1
SOUTHWEST PASS   1100   55 46  330/ 23/ 27 1017.8
NEW CANAL        1100   52 51  350/  2/  6 1018.0
SHELL BEACH      1100   53 53  320/ 18/ 21 1016.9

OFFSHORE STATIONS

STATION/POSITION TIME  TEMP    WIND        PRES    WAVE
                       AIR SEA DIR/SP/G            HT/PER
                 (UTC) (F)     (DEG/KT/KT) (MB)    (FT/S)
64 S DAUPHIN ISL 1003   58 70  320/ 21/ 27 1015.5    8/ 6

$$




USA.gov is the U.S. government's official web portal to all federal, state and local government web resources and services.